Location: Boca do Mato
(22.9085°S, 43.2930°W)
Time: 22:32:28
(UTC+00:00)

Cosmos 2263 Rocket - Pass Details

Date: 14 July 2020
Orbit: 825 x 847 km, 71.0° (Epoch: 10 August)

Event Time Altitude Azimuth Distance (km) Brightness Sun altitude
Rises 08:40:16 0° 183° (S) 3,429 5.2 -12.3°
Reaches altitude 10° 08:43:05 10° 171° (S) 2,486 4.5 -11.7°
Maximum altitude 08:47:56 28° 113° (ESE) 1,543 4.2 -10.7°
Drops below altitude 10° 08:52:42 10° 55° (NE) 2,457 6.0 -9.6°
Sets 08:55:28 0° 43° (NE) 3,381 6.6 -9.0°
